Location: Ariel
(45.9570°N, 122.5700°W)
Time: 23:19:23
(UTC-07:00)

Transit 4A - Pass Details

Date: 24 July 2019
Orbit: 863 x 981 km, 66.8° (Epoch: 20 August)

Event Time Altitude Azimuth Distance (km) Brightness Sun altitude
Rises 05:02:18 0° 283° (WNW) 3,683 10.6 -6.8°
Reaches altitude 10° 05:06:16 10° 306° (NW) 2,741 10.2 -6.2°
Maximum altitude 05:09:41 15° 339° (NNW) 2,415 10.3 -5.8°
Drops below altitude 10° 05:13:06 10° 11° (NNE) 2,735 11.1 -5.3°
Sets 05:17:04 0° 35° (NE) 3,670 12.7 -4.7°
